WetterOnline ( http://www.wetteronline.de )

Wetter aktuell Gottfrieding

Aktuelles Wetter: Gottfrieding (350m)

6-stündlich | Neueste Meldungen
Ortszeit Temperatur Wetter
Mo, 16.07. 2:00 12.3° C wolkig
So, 15.07. 20:00 19.6° C bedeckt
So, 15.07. 14:00 27.0° C bewölkt
So, 15.07. 8:00 16.5° C leicht bewölkt
So, 15.07. 2:00 12.7° C wolkenlos
Sa, 14.07. 20:00 23.9° C leicht bewölkt
Sa, 14.07. 14:00 28.1° C leicht bewölkt
Sa, 14.07. 8:00 17.3° C wolkenlos
Ortszeit Temperatur Wetter
Mo, 16.07. 4:30 11.5° C wolkig
Mo, 16.07. 4:20 11.5° C wolkig
Mo, 16.07. 4:10 11.4° C Nebel
Mo, 16.07. 4:00 11.3° C Nebel
Mo, 16.07. 3:50 11.3° C Nebel
Mo, 16.07. 3:40 10.7° C Nebel
Mo, 16.07. 3:30 12.1° C Nebel
Mo, 16.07. 3:00 12.3° C bedeckt
Mo, 16.07. 2:30 11.9° C wolkig
Mo, 16.07. 2:00 12.3° C wolkig
Mo, 16.07. 1:30 13.0° C bedeckt
Mo, 16.07. 1:00 13.1° C bedeckt
Ortszeit Relative Feuchte Sichtweite
Mo, 16.07. 2:00 97% 3.8 km
So, 15.07. 20:00 70% 35 km
So, 15.07. 14:00 39% 27 km
So, 15.07. 8:00 86% 7 km
So, 15.07. 2:00 96% 5.0 km
Sa, 14.07. 20:00 58% 28 km
Sa, 14.07. 14:00 34% 13 km
Sa, 14.07. 8:00 74% 9 km
Ortszeit Relative Feuchte Sichtweite
Mo, 16.07. 4:30 100% 2.5 km
Mo, 16.07. 4:20 100% -
Mo, 16.07. 4:10 99% -
Mo, 16.07. 4:00 99% 100 m
Mo, 16.07. 3:50 99% -
Mo, 16.07. 3:40 97% -
Mo, 16.07. 3:30 100% 100 m
Mo, 16.07. 3:00 99% 2.5 km
Mo, 16.07. 2:30 98% 3.7 km
Mo, 16.07. 2:00 97% 3.8 km
Mo, 16.07. 1:30 98% 2.9 km
Mo, 16.07. 1:00 97% 4.9 km
Ortszeit Niederschlagsmenge Niederschlagsart
Mo, 16.07. 2:00 0.0 l/m2 in 6 Std. -
So, 15.07. 20:00 3 l/m2 in 12 Std. Regenschauer
So, 15.07. 14:00 0.0 l/m2 in 6 Std. -
So, 15.07. 8:00 0.0 l/m2 in 12 Std. -
So, 15.07. 2:00 0.0 l/m2 in 6 Std. -
Sa, 14.07. 20:00 7 l/m2 in 12 Std. Regenschauer
Sa, 14.07. 14:00 0.1 l/m2 in 6 Std. Niederschlag
Sa, 14.07. 8:00 0.0 l/m2 in 12 Std. -
Ortszeit Niederschlagsmenge Niederschlagsart
Mo, 16.07. 4:30 0.0 l/m2 in 1 Std. -
Mo, 16.07. 4:20 keine Meldung -
Mo, 16.07. 4:10 keine Meldung -
Mo, 16.07. 4:00 0.0 l/m2 in 1 Std. -
Mo, 16.07. 3:50 keine Meldung -
Mo, 16.07. 3:40 keine Meldung -
Mo, 16.07. 3:30 0.0 l/m2 in 1 Std. -
Mo, 16.07. 3:00 0.0 l/m2 in 1 Std. -
Mo, 16.07. 2:30 0.0 l/m2 in 1 Std. -
Mo, 16.07. 2:00 0.0 l/m2 in 1 Std. -
Mo, 16.07. 1:30 0.0 l/m2 in 1 Std. -
Mo, 16.07. 1:00 0.0 l/m2 in 1 Std. -
Ortszeit Stärke Spitze Richtung
km/h Bft. km/h Grad Sektor
Mo, 16.07. 2:00 4 1 14 340° N
So, 15.07. 20:00 4 1 43 240° SW
So, 15.07. 14:00 7 2 14 240° SW
So, 15.07. 8:00 0 0 7 - -
So, 15.07. 2:00 0 0 7 - -
Sa, 14.07. 20:00 4 1 68 80° O
Sa, 14.07. 14:00 11 2 22 320° NW
Sa, 14.07. 8:00 4 1 7 330° NW
Ortszeit Stärke Spitze Richtung
km/h Bft. km/h Grad Sektor
Mo, 16.07. 4:30 4 1 7 220° SW
Mo, 16.07. 4:20 4 1 - 220° SW
Mo, 16.07. 4:10 0 0 - 210° SW
Mo, 16.07. 4:00 6 1 6 310° NW
Mo, 16.07. 3:50 6 1 - 310° NW
Mo, 16.07. 3:40 4 1 - 330° NW
Mo, 16.07. 3:30 4 1 4 280° W
Mo, 16.07. 3:00 4 1 7 140° SO
Mo, 16.07. 2:30 0 0 7 - -
Mo, 16.07. 2:00 4 1 4 340° N
Mo, 16.07. 1:30 0 0 4 - -
Mo, 16.07. 1:00 4 1 7 90° O
Ortszeit Untergrenze Bedeckung Gattung
total tief tief mittel hoch
Mo, 16.07. 2:00 6600 m 7/8 1/8 - - -
So, 15.07. 20:00 3000 m 8/8 8/8 - - -
So, 15.07. 14:00 3600 m 7/8 7/8 - - -
So, 15.07. 8:00 6900 m 4/8 4/8 - - -
So, 15.07. 2:00 - 0/8 0/8 - - -
Sa, 14.07. 20:00 8400 m 5/8 0/8 - - -
Sa, 14.07. 14:00 4200 m 2/8 2/8 - - -
Sa, 14.07. 8:00 - 0/8 0/8 - - -
Ortszeit Bedeckungsgrad in Achtel und Wolkenuntergrenze
Mo, 16.07. 4:30 2(<30m) 4(6300m) 8(6900m)
Mo, 16.07. 4:20 2(<30m) 4(6300m) 8(6900m)
Mo, 16.07. 4:10 2(<30m) 5(6300m) 8(7200m)
Mo, 16.07. 4:00 6(<30m) 7(7500m)
Mo, 16.07. 3:50 6(<30m) 7(7500m)
Mo, 16.07. 3:40 5(<30m) 6(7800m)
Mo, 16.07. 3:30 1(<30m) 6(7500m) 6(8400m)
Mo, 16.07. 3:00 8(6600m)
Mo, 16.07. 2:30 7(7200m) 8(8400m)
Mo, 16.07. 2:00 1(6600m) 3(9000m) 7(9000m)
Mo, 16.07. 1:30 8(6600m) 8(7800m) 7(9000m)
Mo, 16.07. 1:00 8(6900m)
Ortszeit Luftdruck NN (hPa) Tendenz (hPa in 3 Std.)
Mo, 16.07. 2:00 1017 0,0
So, 15.07. 20:00 1014 - 1,3
So, 15.07. 14:00 1014 - 1,6
So, 15.07. 8:00 1017 + 0,2
So, 15.07. 2:00 1018 + 0,2
Sa, 14.07. 20:00 1016 - 0,7
Sa, 14.07. 14:00 1016 - 1,3
Sa, 14.07. 8:00 1019 + 0,3
Ortszeit Luftdruck NN (hPa) Tendenz (hPa in 3 Std.)
Mo, 16.07. 4:30 1016 - 0,6
Mo, 16.07. 4:20 1016 keine Meldung
Mo, 16.07. 4:10 1016 keine Meldung
Mo, 16.07. 4:00 1016 - 0,5
Mo, 16.07. 3:50 1016 keine Meldung
Mo, 16.07. 3:40 1016 keine Meldung
Mo, 16.07. 3:30 1016 - 0,3
Mo, 16.07. 3:00 1016 - 0,1
Mo, 16.07. 2:30 1017 + 0,1
Mo, 16.07. 2:00 1017 0,0
Mo, 16.07. 1:30 1016 - 0,1
Mo, 16.07. 1:00 1016 - 0,3
Ortszeit Schneehöhe (cm)
Mo, 16.07. 2:00 -
So, 15.07. 20:00 -
So, 15.07. 14:00 -
So, 15.07. 8:00 -
So, 15.07. 2:00 -
Sa, 14.07. 20:00 -
Sa, 14.07. 14:00 -
Sa, 14.07. 8:00 -
Ortszeit Schneehöhe (cm)
Mo, 16.07. 4:30 -
Mo, 16.07. 4:20 -
Mo, 16.07. 4:10 -
Mo, 16.07. 4:00 -
Mo, 16.07. 3:50 -
Mo, 16.07. 3:40 -
Mo, 16.07. 3:30 -
Mo, 16.07. 3:00 -
Mo, 16.07. 2:30 -
Mo, 16.07. 2:00 -
Mo, 16.07. 1:30 -
Mo, 16.07. 1:00 -
Link zu dieser Seite / Seite empfehlen

Das Wetter in ...